{"data":{"norad_id":66694,"intl_designator":"2025-276AE","name":"YAM-9","alt_names":[],"object_type":"PAYLOAD","status":"ACTIVE","operator":null,"country":"US","launch_date":"2025-11-28","launch_site_code":"AFWTR","launch_vehicle":null,"mission":null,"orbit_class":"UNKNOWN","rcs_meters":null,"size_class":null,"mass_kg":null,"dimensions":null,"purposes":[],"wikipedia_slug":null,"has_3d_model":false,"image_url":null,"decayed_at":null,"tle_current":{"epoch":"2026-09-20T22:36:14.264064Z","epoch_age_seconds":82829,"freshness":"FRESH","line1":"1 66694U 25276AE  26263.94183176  .00003434  00000+0  18334-3 0  9996","line2":"2 66694  97.4130 334.2181 0008006 350.2262   9.8814 15.15765229 44857","mean_motion":15.15765229,"eccentricity":0.0008006,"inclination_deg":97.413,"raan_deg":334.2181,"arg_perigee_deg":350.2262,"mean_anomaly_deg":9.8814,"bstar":0.00018334,"rev_number":4485,"period_min":95.001519526214,"perigee_km":513.13479492234,"apogee_km":524.17794046269,"semimajor_km":6896.7933676925,"source":"CELESTRAK","updated_at":"2026-09-21T09:00:16.127786Z"}}}